Location: Stilling
(56.0622°N, 9.9882°E)
Time: 12:58:51
(UTC+00:00)

Thor Agena Rocket - Pass Details

Date: 13 July 2020
Orbit: 759 x 808 km, 99.0° (Epoch: 07 August)

Event Time Altitude Azimuth Distance (km) Brightness Sun altitude
Rises 23:07:58 0° 15° (NNE) 3,261 8.3 -12.2°
Reaches altitude 10° 23:10:20 10° 10° (N) 2,324 7.4 -12.2°
Maximum altitude 23:15:16 52° 296° (WNW) 953 4.2 -12.3°
Drops below altitude 10° 23:20:08 10° 221° (SW) 2,292 5.5 -12.3°
Enters shadow 23:20:28 - 220° (SW) 2,418 5.6 -12.3°
